Stations météo

réclame
Mon MeteoGroup
Quimper, France (7201): Température de l'air & dewpoint: 22.05.2018 12:00:00 - 28.05.2018 12:00:00 (CEST)Quimper, France (7201): Température de l'air 5cm: 22.05.2018 12:00:00 - 28.05.2018 12:00:00 (CEST)Quimper, France (7201): Température de l'air -20cm: 22.05.2018 12:00:00 - 28.05.2018 12:00:00 (CEST)Quimper, France (7201): Vitesse du vent & gusts: 22.05.2018 12:00:00 - 28.05.2018 12:00:00 (CEST)Quimper, France (7201): Direction du vent: 22.05.2018 12:00:00 - 28.05.2018 12:00:00 (CEST)Quimper, France (7201): reduced air pressure: 22.05.2018 12:00:00 - 28.05.2018 12:00:00 (CEST)Quimper, France (7201): visibility: 22.05.2018 12:00:00 - 28.05.2018 12:00:00 (CEST)Quimper, France (7201): Ensoleillement: 22.05.2018 12:00:00 - 28.05.2018 12:00:00 (CEST)Quimper, France (7201): Quantités de précipitations: 22.05.2018 12:00:00 - 28.05.2018 12:00:00 (CEST)
Date & Time tt [°C] td [°C] tt 5cm [°C] tt -20cm [°C] ff [km/h] ff [knt] fx [km/h] fx [knt] dd ppp [hPa] vv [km] sd [min] rr [mm]
28.05.2018 12:00:00 - - - - - - - - - - - - -
28.05.2018 11:00:00 15,9 13,9 17,3 16,8 11 6 20 11 NNW 1017,6 6 0 0,0
28.05.2018 10:00:00 15,6 14,1 15,4 16,9 11 6 16 9 N 1018,0 7 0 0,0
28.05.2018 09:00:00 14,6 13,8 15,2 17,0 7 4 11 6 NNW 1017,9 4,3 0 0,0
28.05.2018 08:00:00 14,3 13,7 14,4 17,0 6 3 13 7 NNE 1017,6 2,7 2 0,0
28.05.2018 07:00:00 14,1 13,1 13,8 17,1 5 3 11 6 N 1017,1 3,0 8 0,0
28.05.2018 06:00:00 14,1 12,7 13,7 17,2 5 3 13 7 N 1016,5 4,8 0 0,0
28.05.2018 05:00:00 14,0 12,4 13,8 17,3 4 2 10 6 NNE 1016,6 6 0 0,0
28.05.2018 04:00:00 14,1 12,5 13,9 17,3 5 3 10 6 N 1016,8 7 0 0,0
28.05.2018 03:00:00 14,1 12,5 14,0 17,4 4 2 11 6 NNW 1016,9 7 0 0,0
28.05.2018 02:00:00 14,4 12,8 14,2 17,4 6 3 12 6 N 1017,5 5 0 0,0
28.05.2018 01:00:00 14,7 12,9 14,5 17,5 5 3 10 6 NW 1017,5 8 0 0,0
28.05.2018 00:00:00 14,7 13,1 14,5 17,5 7 4 12 7 W 1017,0 7 0 0,0
27.05.2018 23:00:00 15,3 13,7 15,1 17,5 8 5 13 7 WSW 1016,5 7 0 0,0
27.05.2018 22:00:00 15,9 13,7 15,6 17,5 7 4 15 8 W 1015,9 9 0 0,0
27.05.2018 21:00:00 16,4 13,9 16,4 17,4 7 4 17 9 W 1015,4 14 1 0,0
27.05.2018 20:00:00 17,6 14,5 18,2 17,3 6 3 16 9 W 1015,0 13 1 0,0
27.05.2018 19:00:00 18,2 14,3 19,7 17,2 11 6 20 11 SSW 1014,9 31 0 0,0
27.05.2018 18:00:00 18,5 14,2 19,9 17,0 12 7 19 11 S 1015,0 60 0 0,0
27.05.2018 17:00:00 18,9 14,0 20,2 16,9 8 5 23 12 S 1015,0 28 5 0,0
27.05.2018 16:00:00 18,9 14,6 20,0 16,8 16 9 25 13 S 1014,9 45 12 0,0
27.05.2018 15:00:00 19,3 15,0 20,3 16,7 14 7 29 16 S 1014,5 49 33 0,0
27.05.2018 14:00:00 18,7 14,6 19,2 16,6 13 7 25 13 S 1014,4 20 8 0,0
27.05.2018 13:00:00 18,4 14,7 18,5 16,5 16 8 28 15 SSW 1014,1 20 3 0,0
27.05.2018 12:00:00 18,0 14,1 19,6 16,5 13 7 26 14 S 1013,8 36 26 0,0
27.05.2018 11:00:00 17,5 14,2 18,9 16,5 14 7 22 12 SSW 1013,4 27 21 0,0
27.05.2018 10:00:00 16,8 14,6 16,6 16,5 8 4 19 10 S 1013,2 35 10 0,0
27.05.2018 09:00:00 16,2 15,1 16,2 16,5 9 5 16 9 S 1012,7 23 22 0,0
27.05.2018 08:00:00 15,4 14,9 15,0 16,6 13 7 21 12 SSE 1012,4 10 1 0,0
27.05.2018 07:00:00 15,1 14,6 14,8 16,6 7 4 16 8 SSE 1012,2 6 0 0,0
27.05.2018 06:00:00 15,2 14,7 14,9 16,7 10 6 18 10 S 1011,8 6 0 0,0
27.05.2018 05:00:00 15,2 14,7 14,9 16,7 8 4 18 10 S 1012,0 3,0 0 0,0
27.05.2018 04:00:00 15,5 15,0 15,4 16,8 11 6 19 10 S 1011,8 2,0 0 0,0
27.05.2018 03:00:00 15,7 15,1 15,5 16,8 8 4 18 10 S 1011,7 2,0 0 0,0
27.05.2018 02:00:00 15,9 15,1 15,7 16,8 10 5 17 9 SSE 1012,0 3,1 0 0,0
27.05.2018 01:00:00 16,0 15,2 15,8 16,8 8 4 12 6 S 1012,0 6 0 0,0
27.05.2018 00:00:00 16,1 15,1 15,6 16,8 4 2 6 3 S 1012,0 4,6 0 0,0
26.05.2018 23:00:00 16,1 14,8 15,3 16,8 0 0 7 4 N 1012,0 5 0 0,0
26.05.2018 22:00:00 16,9 15,1 16,6 16,8 4 2 7 4 SSW 1011,7 9 15 0,0
26.05.2018 21:00:00 17,5 15,3 17,6 16,7 5 3 10 5 S 1011,7 11 0 0,0
26.05.2018 20:00:00 18,1 15,2 18,4 16,7 2 1 6 4 SE 1011,4 13 9 0,0
26.05.2018 19:00:00 17,8 15,2 18,1 16,6 3 2 13 7 SE 1011,6 11 1 0,0
26.05.2018 18:00:00 17,4 15,6 17,6 16,6 6 3 12 7 ESE 1012,1 10 0 0,0
26.05.2018 17:00:00 16,9 15,2 16,7 16,6 7 4 28 15 ENE 1012,2 6 0 0,0
26.05.2018 16:00:00 17,1 15,6 16,6 16,5 15 8 27 15 NNE 1012,1 2,5 0 1,2
26.05.2018 15:00:00 17,2 15,4 16,0 16,5 10 5 19 11 NE 1012,7 8 0 1,2
26.05.2018 14:00:00 17,6 14,1 16,7 16,5 13 7 24 13 NE 1013,3 15 0 0,0
26.05.2018 13:00:00 17,4 14,1 17,0 16,5 12 7 27 15 NE 1013,8 17 0 0,0
26.05.2018 12:00:00 16,5 14,0 16,2 16,5 13 7 25 13 NE 1014,3 19 0 0,0
26.05.2018 11:00:00 16,9 14,0 16,8 16,6 14 7 20 11 E 1014,7 19 0 0,0
26.05.2018 10:00:00 15,2 14,1 16,2 16,7 11 6 22 12 NNE 1014,6 10 8 0,0
26.05.2018 09:00:00 14,3 13,8 13,7 16,8 15 8 24 13 NNE 1014,5 6 2 0,0
26.05.2018 08:00:00 13,3 13,0 12,7 16,8 14 7 20 11 NE 1014,6 3,2 3 0,0
26.05.2018 07:00:00 13,0 12,7 12,7 17,0 13 7 21 11 NE 1014,9 2,7 0 0,0
26.05.2018 06:00:00 12,9 12,4 12,6 17,1 13 7 22 12 NE 1015,1 1,8 0 0,0
26.05.2018 05:00:00 12,8 12,2 11,9 17,2 16 8 28 15 NE 1015,4 0,9 0 0,0
26.05.2018 04:00:00 12,9 12,1 12,0 17,3 14 7 21 11 NNE 1015,6 2,9 0 0,0
26.05.2018 03:00:00 12,9 12,1 11,9 17,4 11 6 16 9 NNE 1016,0 3,3 0 0,0
26.05.2018 02:00:00 13,2 12,3 12,3 17,5 8 5 16 9 NNE 1016,4 3,5 0 0,0
26.05.2018 01:00:00 13,6 12,3 12,7 17,6 8 4 18 10 NNE 1016,7 3,8 0 0,0
26.05.2018 00:00:00 14,4 12,8 13,3 17,6 10 6 17 9 NNE 1016,6 5 0 0,0
25.05.2018 23:00:00 15,2 13,0 13,6 17,7 10 5 14 8 NE 1016,7 8 0 0,0
25.05.2018 22:00:00 15,9 13,9 14,7 17,7 6 3 12 6 NE 1016,2 16 26 0,0
25.05.2018 21:00:00 16,0 14,2 14,8 17,6 6 3 10 5 NNW 1016,0 19 9 0,0
25.05.2018 20:00:00 15,7 13,4 14,4 17,4 3 1 37 20 W 1015,9 17 0 3,6
25.05.2018 19:00:00 18,3 13,6 16,2 17,3 20 11 32 17 ENE 1015,2 11 0 0,0
25.05.2018 18:00:00 22,4 13,5 24,9 17,0 16 8 29 15 NE 1015,0 27 27 0,0
25.05.2018 17:00:00 23,5 13,4 22,7 16,8 13 7 26 14 NNE 1015,0 19 25 0,0
25.05.2018 16:00:00 22,1 12,9 24,2 16,6 13 7 26 14 NNE 1015,6 19 35 0,0
25.05.2018 15:00:00 23,3 13,5 24,2 16,4 12 6 23 13 NE 1015,8 17 38 0,0
25.05.2018 14:00:00 22,2 13,5 27,5 16,2 11 6 23 12 NE 1016,2 17 57 0,0
25.05.2018 13:00:00 21,1 13,3 26,4 16,2 12 6 23 12 NE 1016,5 16 60 0,0
25.05.2018 12:00:00 19,3 12,3 22,7 16,2 16 8 24 13 NNE 1016,7 10 60 0,0
25.05.2018 11:00:00 17,6 12,1 20,2 16,2 16 9 27 14 NNE 1017,1 9 60 0,0
25.05.2018 10:00:00 15,5 11,5 16,5 16,3 16 9 27 15 NE 1017,4 8 60 0,0
25.05.2018 09:00:00 13,7 11,0 14,1 16,4 18 10 31 17 NNE 1017,5 7 60 0,0
25.05.2018 08:00:00 12,2 10,8 10,7 16,5 14 7 24 13 NE 1017,6 6 60 0,0
25.05.2018 07:00:00 10,9 10,1 9,8 16,7 14 8 23 12 NNE 1017,3 6 7 0,2
25.05.2018 06:00:00 10,7 9,9 10,0 16,8 15 8 24 13 NNE 1017,3 6 0 0,0
25.05.2018 05:00:00 10,9 10,0 10,0 16,9 15 8 27 15 NNE 1017,5 6 0 0,0
25.05.2018 04:00:00 10,9 9,8 10,2 17,1 13 7 20 11 NNE 1017,7 5 0 0,0
25.05.2018 03:00:00 11,3 10,0 10,5 17,2 11 6 18 10 NNE 1017,8 5 0 0,0
25.05.2018 02:00:00 11,6 10,2 10,6 17,3 12 7 24 13 NNE 1017,9 6 0 0,0
25.05.2018 01:00:00 12,1 10,3 11,4 17,3 16 9 28 15 NE 1018,1 6 0 0,0
25.05.2018 00:00:00 12,6 10,3 11,9 17,4 17 9 27 15 NE 1018,3 6 0 0,0
24.05.2018 23:00:00 14,3 10,9 13,5 17,4 14 8 25 14 NE 1018,3 9 0 0,0
24.05.2018 22:00:00 15,9 11,3 15,0 17,3 11 6 25 13 NNE 1017,5 14 32 0,0
24.05.2018 21:00:00 18,1 11,9 19,3 17,2 16 8 25 14 N 1017,0 16 60 0,0
24.05.2018 20:00:00 20,3 13,3 21,4 17,0 15 8 24 13 NNW 1016,7 16 49 0,0
24.05.2018 19:00:00 21,3 12,4 21,6 16,8 15 8 22 12 NNW 1016,4 19 10 0,0
24.05.2018 18:00:00 21,5 12,1 22,3 16,5 8 4 13 7 SW 1016,7 31 26 0,0
24.05.2018 17:00:00 23,2 12,8 24,4 16,3 4 2 12 7 WNW 1016,7 17 47 0,0
24.05.2018 16:00:00 21,0 12,7 23,5 16,1 7 4 18 10 ENE 1017,3 15 44 0,0
24.05.2018 15:00:00 20,7 12,9 25,3 16,0 6 3 16 9 ENE 1017,5 10 57 0,0
24.05.2018 14:00:00 19,2 13,4 23,5 15,9 9 5 20 11 NNE 1018,1 10 50 0,0
24.05.2018 13:00:00 17,0 12,3 18,7 15,9 10 5 18 10 NE 1018,6 10 6 0,0
24.05.2018 12:00:00 16,2 12,6 18,4 15,9 11 6 19 10 NE 1018,8 8 1 0,0
24.05.2018 11:00:00 15,5 12,3 18,3 15,9 11 6 19 10 NE 1018,8 9 28 0,0
24.05.2018 10:00:00 14,7 12,4 15,7 16,0 13 7 21 11 NE 1018,9 7 28 0,0
24.05.2018 09:00:00 13,2 11,8 14,1 16,1 13 7 22 12 NE 1018,6 6 40 0,0
24.05.2018 08:00:00 12,0 11,2 10,6 16,2 11 6 19 10 NE 1018,6 5 60 0,0
24.05.2018 07:00:00 10,8 10,0 9,7 16,4 10 6 18 10 NE 1018,5 4,1 6 0,0
24.05.2018 06:00:00 10,7 9,6 10,0 16,5 11 6 22 12 NE 1018,4 4,8 0 0,0
24.05.2018 05:00:00 10,9 9,7 9,9 16,6 13 7 19 10 NNE 1018,6 5 0 0,0
24.05.2018 04:00:00 11,0 9,6 10,1 16,8 13 7 20 11 NNE 1018,8 6 0 0,0
24.05.2018 03:00:00 11,3 9,4 10,4 16,8 11 6 22 12 NE 1018,8 7 0 0,0
24.05.2018 02:00:00 11,9 9,3 11,0 17,0 14 8 24 13 NE 1019,1 9 0 0,0
24.05.2018 01:00:00 12,9 9,3 11,9 17,0 14 8 27 15 NE 1019,4 13 0 0,0
24.05.2018 00:00:00 13,7 9,1 12,7 17,1 13 7 26 14 NE 1020,0 20 0 0,0
23.05.2018 23:00:00 15,2 8,4 14,2 17,1 16 9 36 19 NE 1020,1 26 0 0,0
23.05.2018 22:00:00 17,0 7,6 16,2 17,0 21 11 34 18 NE 1019,3 52 31 0,0
23.05.2018 21:00:00 19,3 6,4 20,1 16,9 23 13 37 20 NE 1018,8 34 60 0,0
23.05.2018 20:00:00 21,3 6,0 24,0 16,8 18 10 32 18 NE 1018,4 29 60 0,0
23.05.2018 19:00:00 22,6 6,8 26,6 16,6 15 8 29 15 NE 1018,2 27 60 0,0
23.05.2018 18:00:00 23,2 6,9 25,6 16,4 17 9 34 18 ENE 1018,3 32 54 0,0
23.05.2018 17:00:00 23,5 7,6 23,1 16,2 14 7 31 17 ENE 1018,7 37 34 0,0
23.05.2018 16:00:00 23,3 7,8 24,3 15,9 16 9 34 18 NE 1019,1 32 41 0,0
23.05.2018 15:00:00 23,6 7,2 25,8 15,8 16 9 31 17 NNE 1019,2 26 44 0,0
23.05.2018 14:00:00 23,6 8,1 23,9 15,6 20 11 37 20 NE 1019,7 19 53 0,0
23.05.2018 13:00:00 22,9 10,3 24,7 15,5 18 10 29 16 NE 1020,0 20 56 0,0
23.05.2018 12:00:00 22,3 11,7 26,7 15,5 18 10 27 15 NE 1020,0 20 60 0,0
23.05.2018 11:00:00 21,3 12,4 24,8 15,5 11 6 19 10 E 1020,1 22 60 0,0
23.05.2018 10:00:00 19,2 11,5 21,0 15,6 11 6 17 9 NE 1020,2 20 60 0,0
23.05.2018 09:00:00 15,9 10,6 16,6 15,7 11 6 21 11 NE 1020,1 15 60 0,0
23.05.2018 08:00:00 14,1 9,5 9,5 15,9 12 6 18 10 NNE 1019,8 14 60 0,0
23.05.2018 07:00:00 11,4 8,1 5,1 16,1 8 5 13 7 NNE 1019,4 16 5 0,0
23.05.2018 06:00:00 11,1 7,2 7,2 16,2 8 4 16 8 NNE 1019,1 18 0 0,0
23.05.2018 05:00:00 11,9 7,2 10,2 16,3 10 5 18 10 N 1019,1 22 0 0,0
23.05.2018 04:00:00 11,9 7,8 9,1 16,5 11 6 17 9 N 1019,2 17 0 0,0
23.05.2018 03:00:00 11,1 8,0 6,5 16,6 11 6 17 9 N 1019,5 15 0 0,0
23.05.2018 02:00:00 11,3 7,4 8,1 16,6 9 5 16 9 NNE 1019,7 17 0 0,0
23.05.2018 01:00:00 12,1 7,6 9,6 16,7 9 5 16 8 N 1019,8 24 0 0,0
23.05.2018 00:00:00 13,1 8,2 11,2 16,8 7 4 16 9 NE 1019,6 22 0 0,0
22.05.2018 23:00:00 14,7 9,1 13,5 16,8 12 7 26 14 NNE 1019,3 24 0 0,0
22.05.2018 22:00:00 16,3 9,0 15,3 16,7 12 7 22 12 N 1018,2 37 30 0,0
22.05.2018 21:00:00 18,9 7,9 20,9 16,6 11 6 27 15 NNE 1017,5 38 60 0,0
22.05.2018 20:00:00 20,5 9,1 23,4 16,5 15 8 31 17 N 1017,0 21 52 0,0
22.05.2018 19:00:00 21,9 10,4 25,3 16,4 17 9 31 17 N 1016,6 20 57 0,0
22.05.2018 18:00:00 22,5 10,3 25,4 16,2 18 10 33 18 N 1016,5 20 53 0,0
22.05.2018 17:00:00 22,9 10,7 24,2 16,0 15 8 29 16 N 1016,3 21 22 0,0
22.05.2018 16:00:00 22,5 11,6 26,2 15,8 17 9 31 17 N 1016,6 18 28 0,0
22.05.2018 15:00:00 22,7 12,6 25,2 15,6 21 11 30 16 NNW 1016,4 18 29 0,0
22.05.2018 14:00:00 21,6 12,7 25,7 15,5 19 10 28 15 NNW 1016,5 18 40 0,0
22.05.2018 13:00:00 21,4 13,1 26,6 15,5 14 8 25 13 N 1016,5 17 60 0,0
22.05.2018 12:00:00 18,9 12,4 22,3 15,5 8 4 19 10 N 1016,7 18 11 0,0

tt = Température de l'air
td = dewpoint
tt 5cm = Température de l'air 5cm
tt -20cm = Température de l'air -20cm
ff = Vitesse du vent
fx = gusts
dd = Direction du vent
ppp = reduced air pressure
vv = visibility
sd = Ensoleillement
rr = Quantités de précipitations

stations d'obs. à proximité